Location: Unspecified
(50.7693°N, 0.0000°E)
Time: 19:16:24
(UTC+00:00)

Vanguard 1 - Pass Details

Date: 23 June 2019
Orbit: 653 x 3830 km, 34.3° (Epoch: 18 July)

Event Time Altitude Azimuth Distance (km) Brightness Sun altitude
Exits shadow 23:38:23 15° 156° (SSE) 5,992 13.4 -15.6°
Maximum altitude 23:42:20 16° 143° (SE) 5,660 13.4 -15.7°
Drops below altitude 10° 23:50:48 10° 113° (ESE) 5,474 13.6 -15.8°
Sets 23:56:44 0° 94° (E) 5,885 14.0 -15.8°
